Location: Peterborough
(44.3091°N, 78.3197°W)
Time: 03:35:45
(UTC-04:00)

Vanguard 3 - Pass Details

Date: 24 March 2023
Orbit: 507 x 3246 km, 33.4° (Epoch: 08 June)

Event Time Altitude Azimuth Distance (km) Brightness Sun altitude
Rises 08:02:54 0° 267° (W) 7,205 11.3 8.7°
Reaches altitude 10° 08:08:06 10° 263° (W) 6,099 11.0 9.6°
Maximum altitude 08:25:32 51° 196° (SSW) 2,964 10.1 12.7°
Drops below altitude 10° 08:36:52 10° 124° (SE) 4,088 12.3 14.7°
Sets 08:39:37 0° 119° (ESE) 4,763 12.6 15.2°
